Location: Newark
(22.3060°N, 114.2134°E)
Time: 06:41:46
(UTC+00:00)

Explorer 7 - All Passes

Search period start: 24 July 2021 00:00
Search period end: 03 August 2021 00:00
Orbit: 484 x 677 km, 50.3° (Epoch: 23 July)

Date Brightness Start Highest point End Pass type
(mag) Time Alt. Az. Time Alt. Az. Time Alt. Az.
24 Jul - 06:46:19 10° N 06:49:59 22° NE 06:53:43 10° E daylight
24 Jul - 08:26:04 10° WNW 08:30:35 42° SW 08:35:12 10° SSE daylight
24 Jul - 22:19:00 10° SW 22:22:46 90° SE 22:26:41 10° NE daylight
25 Jul - 06:50:03 10° NNW 06:54:24 36° NE 06:58:52 10° ESE daylight
25 Jul - 08:31:00 10° WNW 08:34:47 23° SW 08:38:38 10° S daylight
25 Jul - 20:45:50 10° SE 20:47:01 11° SE 20:48:13 10° ESE visible
25 Jul - 22:23:30 10° WSW 22:27:05 42° NW 22:30:48 10° NNE daylight
26 Jul - 06:54:04 10° NW 06:58:44 65° NE 07:03:33 10° SE daylight
26 Jul - 08:36:56 10° W 08:38:57 13° SW 08:41:01 10° SSW daylight
26 Jul - 20:48:11 10° S 20:51:11 23° SE 20:54:14 10° ENE visible
26 Jul - 22:28:29 10° W 22:31:30 22° NW 22:34:36 10° N daylight
27 Jul - 05:19:37 10° N 05:22:14 15° NE 05:24:54 10° ENE daylight
27 Jul - 06:58:21 10° NW 07:03:01 69° SW 07:07:50 10° SSE daylight
27 Jul - 20:51:46 10° SSW 20:55:23 49° SE 20:59:04 10° NE visible
27 Jul - 22:34:16 10° WNW 22:36:00 13° NW 22:37:45 10° N daylight
28 Jul - 05:22:58 10° NNW 05:26:43 24° NE 05:30:34 10° E daylight
28 Jul - 07:02:56 10° WNW 07:07:15 36° SW 07:11:41 10° SSE daylight
28 Jul - 20:55:55 10° SW 20:59:38 75° NW 21:03:27 10° NE visible
29 Jul - 05:26:47 10° NNW 05:31:07 41° NE 05:35:37 10° ESE daylight
29 Jul - 07:08:02 10° W 07:11:27 20° SW 07:14:57 10° S daylight
29 Jul - 19:21:59 10° SSE 19:23:50 13° SE 19:25:42 10° E visible
29 Jul - 21:00:31 10° WSW 21:03:58 35° NW 21:07:29 10° NNE visible
30 Jul - 05:30:51 10° NW 05:35:25 75° NE 05:40:13 10° SE daylight
30 Jul - 07:14:51 10° WSW 07:15:38 10° SW 07:16:24 10° SW daylight
30 Jul - 19:24:49 10° S 19:28:00 27° SE 19:31:14 10° ENE visible
30 Jul - 21:05:39 10° W 21:08:23 19° NW 21:11:10 10° N visible
31 Jul - 03:56:14 10° N 03:59:00 16° NE 04:01:51 10° ENE daylight
31 Jul - 05:35:11 10° NW 05:39:42 58° SW 05:44:24 10° SSE daylight
31 Jul - 19:28:33 10° SSW 19:32:13 59° SE 19:35:55 10° NE visible
31 Jul - 21:12:00 10° NW 21:12:54 11° NW 21:13:48 10° NNW visible
01 Aug - 03:59:41 10° NNW 04:03:27 26° NE 04:07:23 10° E daylight
01 Aug - 05:39:52 10° WNW 05:43:55 31° SW 05:48:07 10° S daylight
01 Aug - 19:32:48 10° SW 19:36:30 62° NW 19:40:13 10° NE visible
02 Aug - 04:03:32 10° NNW 04:07:49 46° NE 04:12:19 10° ESE daylight
02 Aug - 05:45:09 10° W 05:48:07 17° SW 05:51:09 10° SSW daylight
02 Aug - 17:58:18 10° SSE 18:00:39 16° SE 18:02:58 10° E night (unlit)
02 Aug - 19:37:31 10° WSW 19:40:50 30° NW 19:44:11 10° NNE visible
